Tracking 19484 objects as of 20-Jan-2019
HD Live streaming from Space Station
objects crossing your sky now

COSMOS 841

Track COSMOS 841 now!
10-day predictions
COSMOS 841 is classified as:


NORAD ID: 9022
Int'l Code: 1976-069A
Perigee: 769.7 km
Apogee: 789.8 km
Inclination: 74.0 °
Period: 100.3 minutes
Semi major axis: 7150 km
RCS: 2.1872 m2 (large)
Launch date: July 15, 1976
Source: Commonwealth of Independent States (former USSR) (CIS)
Launch site: PLESETSK MISSILE AND SPACE COMPLEX (PKMTR)
aabbcc
Your satellite tracking list
Your tracking list is empty




NASA's NSSDC Master Catalog

Two Line Element Set (TLE):
1  9022U 76069A   19019.94423459 +.00000016 +00000-0 +14538-4 0  9993
2  9022 074.0417 225.7306 0014038 254.3617 105.5987 14.35749847224057
Source of the keplerian elements: AFSPC